PRIVATE WETTERSTATION BILLIGHEIM-ALLFELD                       ZURCK
Wetterdaten: Montag, 06.03.2017
Datum Zeit Temp. A. Temp. A. min Temp. A. max Feuchte A. Luftdruck Regen Wind Richtung Richtung Sonnenschein ET Solar Taupunkt Windchill Windben Empfang
06.03.2017 00:00 4,1 C 4,1 C 4,1 C 91 % 1001,6 hPa 0,0 l/m 12,9 km/h (3 Bft) W-SW 247 0 min 0,025 mm 0 W/m 2,8 C -0,8 C 37,0 km/h (5 Bft) 100 %
06.03.2017 00:10 4,1 C 4,1 C 4,1 C 91 % 1001,6 hPa 0,0 l/m 14,5 km/h (3 Bft) W-SW 247 0 min 0,000 mm 0 W/m 2,8 C -1,7 C 41,8 km/h (6 Bft) 100 %
06.03.2017 00:20 4,1 C 4,1 C 4,1 C 91 % 1002,0 hPa 0,2 l/m 14,5 km/h (3 Bft) W-SW 247 0 min 0,000 mm 0 W/m 2,8 C -1,7 C 32,2 km/h (5 Bft) 100 %
06.03.2017 00:30 4,0 C 4,0 C 4,1 C 91 % 1002,1 hPa 0,0 l/m 14,5 km/h (3 Bft) W-SW 247 0 min 0,000 mm 0 W/m 2,7 C -1,9 C 40,2 km/h (6 Bft) 100 %
06.03.2017 00:40 3,9 C 3,9 C 4,0 C 91 % 1002,3 hPa 0,0 l/m 14,5 km/h (3 Bft) W-SW 247 0 min 0,000 mm 0 W/m 2,6 C -2,0 C 32,2 km/h (5 Bft) 100 %
06.03.2017 00:50 3,9 C 3,9 C 3,9 C 91 % 1002,5 hPa 0,0 l/m 9,7 km/h (2 Bft) W-SW 247 0 min 0,000 mm 0 W/m 2,6 C 1,1 C 32,2 km/h (5 Bft) 100 %
06.03.2017 01:00 3,9 C 3,9 C 3,9 C 91 % 1002,7 hPa 0,2 l/m 12,9 km/h (3 Bft) SW 225 0 min 0,000 mm 0 W/m 2,6 C -1,1 C 33,8 km/h (5 Bft) 100 %
06.03.2017 01:10 3,9 C 3,9 C 3,9 C 91 % 1002,7 hPa 0,2 l/m 11,3 km/h (2 Bft) SW 225 0 min 0,000 mm 0 W/m 2,6 C -0,1 C 30,6 km/h (5 Bft) 100 %
06.03.2017 01:20 3,9 C 3,9 C 3,9 C 91 % 1002,8 hPa 0,0 l/m 16,1 km/h (3 Bft) SW 225 0 min 0,000 mm 0 W/m 2,6 C -2,8 C 32,2 km/h (5 Bft) 100 %
06.03.2017 01:30 3,9 C 3,9 C 3,9 C 91 % 1003,1 hPa 0,0 l/m 12,9 km/h (3 Bft) SW 225 0 min 0,000 mm 0 W/m 2,6 C -1,1 C 32,2 km/h (5 Bft) 100 %
06.03.2017 01:40 3,9 C 3,9 C 3,9 C 91 % 1003,3 hPa 0,0 l/m 11,3 km/h (2 Bft) SW 225 0 min 0,000 mm 0 W/m 2,6 C -0,1 C 29,0 km/h (5 Bft) 100 %
06.03.2017 01:50 3,9 C 3,9 C 3,9 C 91 % 1003,4 hPa 0,0 l/m 12,9 km/h (3 Bft) W-SW 247 0 min 0,000 mm 0 W/m 2,6 C -1,1 C 27,4 km/h (4 Bft) 100 %
06.03.2017 02:00 3,9 C 3,9 C 3,9 C 91 % 1003,4 hPa 0,0 l/m 12,9 km/h (3 Bft) W-SW 247 0 min 0,000 mm 0 W/m 2,6 C -1,1 C 29,0 km/h (5 Bft) 100 %
06.03.2017 02:10 4,0 C 3,9 C 4,0 C 91 % 1003,6 hPa 0,0 l/m 16,1 km/h (3 Bft) W 270 0 min 0,000 mm 0 W/m 2,7 C -2,7 C 40,2 km/h (6 Bft) 100 %
06.03.2017 02:20 4,0 C 4,0 C 4,0 C 91 % 1003,6 hPa 0,0 l/m 11,3 km/h (2 Bft) W-SW 247 0 min 0,000 mm 0 W/m 2,7 C 0,1 C 29,0 km/h (5 Bft) 100 %
06.03.2017 02:30 4,0 C 4,0 C 4,0 C 91 % 1003,6 hPa 0,0 l/m 14,5 km/h (3 Bft) W-SW 247 0 min 0,000 mm 0 W/m 2,7 C -1,9 C 33,8 km/h (5 Bft) 100 %
06.03.2017 02:40 4,1 C 4,0 C 4,1 C 91 % 1003,7 hPa 0,0 l/m 9,7 km/h (2 Bft) W-SW 247 0 min 0,000 mm 0 W/m 2,8 C 1,3 C 30,6 km/h (5 Bft) 100 %
06.03.2017 02:50 4,1 C 4,1 C 4,1 C 91 % 1003,7 hPa 0,0 l/m 11,3 km/h (2 Bft) SW 225 0 min 0,000 mm 0 W/m 2,8 C 0,2 C 29,0 km/h (5 Bft) 100 %
06.03.2017 03:00 4,1 C 4,1 C 4,1 C 91 % 1003,6 hPa 0,0 l/m 9,7 km/h (2 Bft) W-SW 247 0 min 0,000 mm 0 W/m 2,8 C 1,3 C 24,1 km/h (4 Bft) 100 %
06.03.2017 03:10 4,1 C 4,1 C 4,1 C 91 % 1003,5 hPa 0,0 l/m 6,4 km/h (2 Bft) SW 225 0 min 0,000 mm 0 W/m 2,8 C 4,1 C 20,9 km/h (4 Bft) 100 %
06.03.2017 03:20 4,1 C 4,1 C 4,1 C 91 % 1003,5 hPa 0,0 l/m 11,3 km/h (2 Bft) SW 225 0 min 0,000 mm 0 W/m 2,8 C 0,2 C 25,7 km/h (4 Bft) 100 %
06.03.2017 03:30 4,1 C 4,1 C 4,1 C 91 % 1003,6 hPa 0,0 l/m 8,0 km/h (2 Bft) SW 225 0 min 0,000 mm 0 W/m 2,8 C 2,7 C 19,3 km/h (3 Bft) 100 %
06.03.2017 03:40 4,2 C 4,1 C 4,2 C 91 % 1003,6 hPa 0,0 l/m 9,7 km/h (2 Bft) SW 225 0 min 0,000 mm 0 W/m 2,9 C 1,4 C 24,1 km/h (4 Bft) 100 %
06.03.2017 03:50 4,2 C 4,2 C 4,2 C 91 % 1003,6 hPa 0,0 l/m 9,7 km/h (2 Bft) SW 225 0 min 0,000 mm 0 W/m 2,9 C 1,4 C 22,5 km/h (4 Bft) 100 %
06.03.2017 04:00 4,3 C 4,2 C 4,3 C 91 % 1003,4 hPa 0,2 l/m 12,9 km/h (3 Bft) SW 225 0 min 0,000 mm 0 W/m 3,0 C -0,6 C 24,1 km/h (4 Bft) 87 %
06.03.2017 04:10 4,3 C 4,3 C 4,3 C 90 % 1003,4 hPa 0,0 l/m 11,3 km/h (2 Bft) SW 225 0 min 0,000 mm 0 W/m 2,8 C 0,4 C 22,5 km/h (4 Bft) 100 %
06.03.2017 04:20 4,4 C 4,3 C 4,4 C 90 % 1003,3 hPa 0,0 l/m 11,3 km/h (2 Bft) SW 225 0 min 0,000 mm 0 W/m 2,9 C 0,5 C 24,1 km/h (4 Bft) 100 %
06.03.2017 04:30 4,4 C 4,3 C 4,4 C 90 % 1003,4 hPa 0,0 l/m 12,9 km/h (3 Bft) SW 225 0 min 0,000 mm 0 W/m 2,9 C -0,5 C 29,0 km/h (5 Bft) 100 %
06.03.2017 04:40 4,3 C 4,2 C 4,4 C 90 % 1003,3 hPa 0,2 l/m 14,5 km/h (3 Bft) SW 225 0 min 0,000 mm 0 W/m 2,8 C -1,5 C 30,6 km/h (5 Bft) 100 %
06.03.2017 04:50 4,2 C 4,2 C 4,3 C 90 % 1003,3 hPa 0,0 l/m 16,1 km/h (3 Bft) SW 225 0 min 0,000 mm 0 W/m 2,7 C -2,5 C 29,0 km/h (5 Bft) 100 %
06.03.2017 05:00 4,2 C 4,2 C 4,2 C 90 % 1003,4 hPa 0,0 l/m 16,1 km/h (3 Bft) SW 225 0 min 0,025 mm 0 W/m 2,7 C -2,5 C 35,4 km/h (5 Bft) 100 %
06.03.2017 05:10 4,3 C 4,2 C 4,3 C 90 % 1003,5 hPa 0,0 l/m 16,1 km/h (3 Bft) SW 225 0 min 0,000 mm 0 W/m 2,8 C -2,3 C 35,4 km/h (5 Bft) 100 %
06.03.2017 05:20 4,2 C 4,2 C 4,3 C 91 % 1003,4 hPa 0,0 l/m 12,9 km/h (3 Bft) SW 225 0 min 0,000 mm 0 W/m 2,9 C -0,7 C 24,1 km/h (4 Bft) 100 %
06.03.2017 05:30 4,2 C 4,2 C 4,2 C 90 % 1003,3 hPa 0,0 l/m 14,5 km/h (3 Bft) SW 225 0 min 0,000 mm 0 W/m 2,7 C -1,6 C 33,8 km/h (5 Bft) 100 %
06.03.2017 05:40 4,3 C 4,2 C 4,3 C 90 % 1003,3 hPa 0,0 l/m 12,9 km/h (3 Bft) SW 225 0 min 0,000 mm 0 W/m 2,8 C -0,6 C 29,0 km/h (5 Bft) 100 %
06.03.2017 05:50 4,3 C 4,3 C 4,3 C 90 % 1003,3 hPa 0,0 l/m 16,1 km/h (3 Bft) S-SW 202 0 min 0,000 mm 0 W/m 2,8 C -2,3 C 30,6 km/h (5 Bft) 100 %
06.03.2017 06:00 4,4 C 4,3 C 4,4 C 90 % 1003,4 hPa 0,0 l/m 17,7 km/h (3 Bft) SW 225 0 min 0,025 mm 0 W/m 2,9 C -3,0 C 32,2 km/h (5 Bft) 100 %
06.03.2017 06:10 4,3 C 4,3 C 4,4 C 90 % 1003,2 hPa 0,0 l/m 16,1 km/h (3 Bft) SW 225 0 min 0,000 mm 0 W/m 2,8 C -2,3 C 29,0 km/h (5 Bft) 100 %
06.03.2017 06:20 4,3 C 4,3 C 4,3 C 90 % 1003,3 hPa 0,0 l/m 14,5 km/h (3 Bft) S-SW 202 0 min 0,000 mm 0 W/m 2,8 C -1,5 C 27,4 km/h (4 Bft) 100 %
06.03.2017 06:30 4,3 C 4,3 C 4,3 C 91 % 1003,2 hPa 0,0 l/m 12,9 km/h (3 Bft) S-SW 202 0 min 0,000 mm 0 W/m 3,0 C -0,6 C 24,1 km/h (4 Bft) 100 %
06.03.2017 06:40 4,3 C 4,3 C 4,3 C 91 % 1003,2 hPa 0,0 l/m 16,1 km/h (3 Bft) S-SW 202 0 min 0,000 mm 0 W/m 3,0 C -2,3 C 37,0 km/h (5 Bft) 100 %
06.03.2017 06:50 4,3 C 4,3 C 4,3 C 91 % 1003,2 hPa 0,0 l/m 14,5 km/h (3 Bft) S-SW 202 0 min 0,000 mm 0 W/m 3,0 C -1,5 C 24,1 km/h (4 Bft) 100 %
06.03.2017 07:00 4,3 C 4,3 C 4,3 C 91 % 1003,1 hPa 0,0 l/m 14,5 km/h (3 Bft) S-SW 202 0 min 0,000 mm 0 W/m 3,0 C -1,5 C 30,6 km/h (5 Bft) 100 %
06.03.2017 07:10 4,3 C 4,3 C 4,4 C 91 % 1003,1 hPa 0,0 l/m 16,1 km/h (3 Bft) S-SW 202 0 min 0,000 mm 7 W/m 3,0 C -2,3 C 30,6 km/h (5 Bft) 100 %
06.03.2017 07:20 4,3 C 4,3 C 4,4 C 91 % 1003,1 hPa 0,0 l/m 12,9 km/h (3 Bft) S-SW 202 0 min 0,000 mm 12 W/m 3,0 C -0,6 C 20,9 km/h (4 Bft) 100 %
06.03.2017 07:30 4,3 C 4,3 C 4,3 C 91 % 1003,0 hPa 0,0 l/m 11,3 km/h (2 Bft) S-SW 202 0 min 0,000 mm 11 W/m 3,0 C 0,4 C 20,9 km/h (4 Bft) 100 %
06.03.2017 07:40 4,3 C 4,3 C 4,3 C 91 % 1002,9 hPa 0,0 l/m 12,9 km/h (3 Bft) S-SW 202 0 min 0,000 mm 14 W/m 3,0 C -0,6 C 20,9 km/h (4 Bft) 100 %
06.03.2017 07:50 4,4 C 4,3 C 4,4 C 91 % 1002,9 hPa 0,0 l/m 14,5 km/h (3 Bft) S-SW 202 0 min 0,000 mm 33 W/m 3,1 C -1,4 C 25,7 km/h (4 Bft) 100 %
06.03.2017 08:00 4,5 C 4,4 C 4,5 C 90 % 1002,8 hPa 0,2 l/m 14,5 km/h (3 Bft) S-SW 202 0 min 0,025 mm 37 W/m 3,0 C -1,3 C 27,4 km/h (4 Bft) 100 %
06.03.2017 08:10 4,6 C 4,5 C 4,6 C 89 % 1002,9 hPa 0,0 l/m 19,3 km/h (3 Bft) S-SW 202 0 min 0,000 mm 58 W/m 2,9 C -3,4 C 33,8 km/h (5 Bft) 100 %
06.03.2017 08:20 4,7 C 4,6 C 4,7 C 89 % 1002,9 hPa 0,0 l/m 16,1 km/h (3 Bft) SW 225 0 min 0,000 mm 58 W/m 3,0 C -1,8 C 40,2 km/h (6 Bft) 100 %
06.03.2017 08:30 4,6 C 4,6 C 4,7 C 90 % 1002,8 hPa 0,0 l/m 17,7 km/h (3 Bft) SW 225 0 min 0,000 mm 65 W/m 3,1 C -2,7 C 33,8 km/h (5 Bft) 100 %
06.03.2017 08:40 4,6 C 4,6 C 4,6 C 90 % 1002,6 hPa 0,0 l/m 20,9 km/h (4 Bft) S-SW 202 0 min 0,000 mm 60 W/m 3,1 C -4,0 C 40,2 km/h (6 Bft) 100 %
06.03.2017 08:50 4,5 C 4,5 C 4,6 C 90 % 1002,5 hPa 0,2 l/m 14,5 km/h (3 Bft) S-SW 202 0 min 0,000 mm 69 W/m 3,0 C -1,3 C 29,0 km/h (5 Bft) 100 %
06.03.2017 09:00 4,5 C 4,4 C 4,5 C 91 % 1002,3 hPa 0,0 l/m 14,5 km/h (3 Bft) S-SW 202 0 min 0,025 mm 69 W/m 3,2 C -1,3 C 27,4 km/h (4 Bft) 100 %
06.03.2017 09:10 4,5 C 4,4 C 4,5 C 91 % 1002,3 hPa 0,0 l/m 14,5 km/h (3 Bft) S-SW 202 0 min 0,000 mm 88 W/m 3,2 C -1,3 C 27,4 km/h (4 Bft) 100 %
06.03.2017 09:20 4,6 C 4,5 C 4,6 C 91 % 1002,3 hPa 0,2 l/m 16,1 km/h (3 Bft) S-SW 202 0 min 0,000 mm 79 W/m 3,3 C -2,0 C 25,7 km/h (4 Bft) 100 %
06.03.2017 09:30 4,6 C 4,6 C 4,6 C 91 % 1002,1 hPa 0,0 l/m 12,9 km/h (3 Bft) S-SW 202 0 min 0,000 mm 60 W/m 3,3 C -0,2 C 22,5 km/h (4 Bft) 100 %
06.03.2017 09:40 4,7 C 4,6 C 4,7 C 90 % 1001,9 hPa 0,0 l/m 14,5 km/h (3 Bft) S-SW 202 0 min 0,000 mm 74 W/m 3,2 C -1,0 C 25,7 km/h (4 Bft) 100 %
06.03.2017 09:50 4,7 C 4,7 C 4,7 C 91 % 1001,8 hPa 0,0 l/m 11,3 km/h (2 Bft) S-SW 202 0 min 0,000 mm 67 W/m 3,4 C 0,9 C 22,5 km/h (4 Bft) 100 %
06.03.2017 10:00 4,8 C 4,7 C 4,8 C 89 % 1001,8 hPa 0,0 l/m 14,5 km/h (3 Bft) S-SW 202 0 min 0,025 mm 58 W/m 3,1 C -0,9 C 27,4 km/h (4 Bft) 89 %
06.03.2017 10:10 4,9 C 4,8 C 4,9 C 88 % 1001,8 hPa 0,0 l/m 14,5 km/h (3 Bft) S-SW 202 0 min 0,000 mm 58 W/m 3,1 C -0,8 C 32,2 km/h (5 Bft) 99 %
06.03.2017 10:20 5,1 C 4,9 C 5,1 C 87 % 1001,7 hPa 0,0 l/m 12,9 km/h (3 Bft) SW 225 0 min 0,000 mm 46 W/m 3,1 C 0,3 C 30,6 km/h (5 Bft) 100 %
06.03.2017 10:30 5,1 C 5,1 C 5,1 C 86 % 1001,7 hPa 0,0 l/m 12,9 km/h (3 Bft) SW 225 0 min 0,000 mm 40 W/m 3,0 C 0,3 C 25,7 km/h (4 Bft) 100 %
06.03.2017 10:40 5,3 C 5,1 C 5,3 C 86 % 1001,6 hPa 0,0 l/m 14,5 km/h (3 Bft) SW 225 0 min 0,000 mm 56 W/m 3,2 C -0,3 C 29,0 km/h (5 Bft) 100 %
06.03.2017 10:50 5,4 C 5,2 C 5,4 C 85 % 1001,6 hPa 0,0 l/m 17,7 km/h (3 Bft) SW 225 0 min 0,000 mm 65 W/m 3,1 C -1,7 C 43,5 km/h (6 Bft) 100 %
06.03.2017 11:00 5,4 C 5,4 C 5,5 C 85 % 1001,5 hPa 0,0 l/m 14,5 km/h (3 Bft) SW 225 0 min 0,025 mm 70 W/m 3,1 C -0,2 C 33,8 km/h (5 Bft) 100 %
06.03.2017 11:10 5,4 C 5,4 C 5,4 C 85 % 1001,4 hPa 0,0 l/m 14,5 km/h (3 Bft) W-SW 247 0 min 0,000 mm 69 W/m 3,1 C -0,2 C 33,8 km/h (5 Bft) 100 %
06.03.2017 11:20 5,5 C 5,4 C 5,5 C 84 % 1001,3 hPa 0,0 l/m 16,1 km/h (3 Bft) SW 225 0 min 0,000 mm 56 W/m 3,0 C -0,9 C 30,6 km/h (5 Bft) 100 %
06.03.2017 11:30 5,6 C 5,5 C 5,6 C 84 % 1001,2 hPa 0,0 l/m 16,1 km/h (3 Bft) SW 225 0 min 0,000 mm 79 W/m 3,1 C -0,7 C 37,0 km/h (5 Bft) 100 %
06.03.2017 11:40 5,6 C 5,6 C 5,6 C 83 % 1001,1 hPa 0,0 l/m 20,9 km/h (4 Bft) W-SW 247 0 min 0,000 mm 109 W/m 2,9 C -2,7 C 46,7 km/h (6 Bft) 99 %
06.03.2017 11:50 5,7 C 5,6 C 5,7 C 83 % 1000,9 hPa 0,0 l/m 12,9 km/h (3 Bft) SW 225 0 min 0,000 mm 139 W/m 3,0 C 1,0 C 30,6 km/h (5 Bft) 98 %
06.03.2017 12:00 5,9 C 5,7 C 5,9 C 83 % 1000,9 hPa 0,0 l/m 11,3 km/h (2 Bft) SW 225 0 min 0,051 mm 132 W/m 3,2 C 2,2 C 29,0 km/h (5 Bft) 98 %
06.03.2017 12:10 6,0 C 5,9 C 6,0 C 82 % 1000,9 hPa 0,0 l/m 19,3 km/h (3 Bft) SW 225 10 min 0,000 mm 220 W/m 3,2 C -1,6 C 41,8 km/h (6 Bft) 97 %
06.03.2017 12:20 6,2 C 6,0 C 6,2 C 83 % 1000,7 hPa 0,0 l/m 11,3 km/h (2 Bft) W-SW 247 10 min 0,000 mm 236 W/m 3,5 C 2,6 C 29,0 km/h (5 Bft) 98 %
06.03.2017 12:30 6,5 C 6,2 C 6,5 C 82 % 1000,6 hPa 0,0 l/m 11,3 km/h (2 Bft) W-SW 247 10 min 0,000 mm 339 W/m 3,7 C 2,9 C 30,6 km/h (5 Bft) 97 %
06.03.2017 12:40 6,8 C 6,5 C 6,8 C 81 % 1000,5 hPa 0,0 l/m 12,9 km/h (3 Bft) SW 225 10 min 0,000 mm 279 W/m 3,8 C 2,3 C 27,4 km/h (4 Bft) 98 %
06.03.2017 12:50 6,9 C 6,8 C 6,9 C 80 % 1000,5 hPa 0,0 l/m 6,4 km/h (2 Bft) W-SW 247 10 min 0,000 mm 193 W/m 3,7 C 6,9 C 16,1 km/h (3 Bft) 98 %
06.03.2017 13:00 6,8 C 6,8 C 6,9 C 79 % 1000,6 hPa 0,0 l/m 4,8 km/h (1 Bft) W 270 0 min 0,076 mm 70 W/m 3,4 C 6,8 C 19,3 km/h (3 Bft) 98 %
06.03.2017 13:10 6,8 C 6,8 C 6,8 C 77 % 1000,4 hPa 0,0 l/m 11,3 km/h (2 Bft) W-SW 247 0 min 0,000 mm 70 W/m 3,1 C 3,2 C 29,0 km/h (5 Bft) 98 %
06.03.2017 13:20 6,8 C 6,8 C 6,8 C 76 % 1000,3 hPa 0,0 l/m 8,0 km/h (2 Bft) W-SW 247 0 min 0,000 mm 90 W/m 2,9 C 5,5 C 19,3 km/h (3 Bft) 97 %
06.03.2017 13:30 6,9 C 6,8 C 6,9 C 75 % 1000,2 hPa 0,0 l/m 12,9 km/h (3 Bft) SW 225 0 min 0,000 mm 95 W/m 2,8 C 2,4 C 29,0 km/h (5 Bft) 98 %
06.03.2017 13:40 7,1 C 6,9 C 7,1 C 74 % 1000,1 hPa 0,0 l/m 14,5 km/h (3 Bft) W-SW 247 0 min 0,000 mm 139 W/m 2,8 C 1,9 C 37,0 km/h (5 Bft) 98 %
06.03.2017 13:50 7,2 C 7,1 C 7,2 C 74 % 999,9 hPa 0,0 l/m 14,5 km/h (3 Bft) W-SW 247 0 min 0,000 mm 120 W/m 2,9 C 2,0 C 30,6 km/h (5 Bft) 98 %
06.03.2017 14:00 7,4 C 7,2 C 7,4 C 74 % 999,7 hPa 0,0 l/m 8,0 km/h (2 Bft) W-SW 247 10 min 0,076 mm 316 W/m 3,1 C 6,1 C 25,7 km/h (4 Bft) 98 %
06.03.2017 14:10 7,8 C 7,4 C 7,8 C 74 % 999,5 hPa 0,0 l/m 12,9 km/h (3 Bft) SW 225 10 min 0,000 mm 325 W/m 3,5 C 3,5 C 29,0 km/h (5 Bft) 98 %
06.03.2017 14:20 8,1 C 7,8 C 8,1 C 73 % 999,5 hPa 0,0 l/m 11,3 km/h (2 Bft) W-SW 247 10 min 0,000 mm 315 W/m 3,6 C 4,7 C 25,7 km/h (4 Bft) 98 %
06.03.2017 14:30 8,2 C 8,1 C 8,3 C 69 % 999,3 hPa 0,0 l/m 16,1 km/h (3 Bft) W-SW 247 10 min 0,000 mm 295 W/m 2,9 C 2,5 C 32,2 km/h (5 Bft) 98 %
06.03.2017 14:40 8,2 C 8,2 C 8,2 C 69 % 999,3 hPa 0,0 l/m 14,5 km/h (3 Bft) W-SW 247 10 min 0,000 mm 288 W/m 2,9 C 3,2 C 32,2 km/h (5 Bft) 98 %
06.03.2017 14:50 8,2 C 8,2 C 8,2 C 70 % 999,3 hPa 0,0 l/m 12,9 km/h (3 Bft) W 270 10 min 0,000 mm 220 W/m 3,1 C 4,0 C 27,4 km/h (4 Bft) 97 %
06.03.2017 15:00 8,1 C 8,1 C 8,2 C 69 % 999,2 hPa 0,0 l/m 9,7 km/h (2 Bft) W-NW 292 10 min 0,127 mm 171 W/m 2,8 C 5,7 C 29,0 km/h (5 Bft) 97 %
06.03.2017 15:10 8,2 C 8,1 C 8,2 C 68 % 999,0 hPa 0,0 l/m 11,3 km/h (2 Bft) W 270 10 min 0,000 mm 207 W/m 2,7 C 4,8 C 24,1 km/h (4 Bft) 98 %
06.03.2017 15:20 8,4 C 8,2 C 8,4 C 68 % 999,1 hPa 0,0 l/m 8,0 km/h (2 Bft) W 270 10 min 0,000 mm 200 W/m 2,8 C 7,2 C 22,5 km/h (4 Bft) 98 %
06.03.2017 15:30 8,4 C 8,4 C 8,4 C 68 % 999,1 hPa 0,0 l/m 9,7 km/h (2 Bft) SW 225 10 min 0,000 mm 181 W/m 2,8 C 6,0 C 22,5 km/h (4 Bft) 98 %
06.03.2017 15:40 8,5 C 8,3 C 8,5 C 68 % 998,9 hPa 0,0 l/m 8,0 km/h (2 Bft) W 270 10 min 0,000 mm 169 W/m 2,9 C 7,3 C 19,3 km/h (3 Bft) 98 %
06.03.2017 15:50 8,8 C 8,5 C 8,8 C 67 % 999,0 hPa 0,0 l/m 8,0 km/h (2 Bft) W-SW 247 0 min 0,000 mm 149 W/m 3,0 C 7,6 C 17,7 km/h (3 Bft) 98 %
06.03.2017 16:00 8,9 C 8,8 C 8,9 C 68 % 999,1 hPa 0,0 l/m 8,0 km/h (2 Bft) W-NW 292 0 min 0,102 mm 128 W/m 3,3 C 7,7 C 17,7 km/h (3 Bft) 97 %
06.03.2017 16:10 9,1 C 8,9 C 9,1 C 65 % 999,2 hPa 0,0 l/m 8,0 km/h (2 Bft) W 270 0 min 0,000 mm 107 W/m 2,9 C 7,9 C 17,7 km/h (3 Bft) 97 %
06.03.2017 16:20 8,8 C 8,8 C 9,1 C 65 % 999,2 hPa 0,0 l/m 12,9 km/h (3 Bft) W 270 0 min 0,000 mm 105 W/m 2,6 C 4,7 C 27,4 km/h (4 Bft) 98 %
06.03.2017 16:30 8,7 C 8,7 C 8,9 C 66 % 999,3 hPa 0,0 l/m 12,9 km/h (3 Bft) W 270 0 min 0,000 mm 114 W/m 2,7 C 4,6 C 24,1 km/h (4 Bft) 98 %
06.03.2017 16:40 8,7 C 8,7 C 8,7 C 67 % 999,4 hPa 0,0 l/m 8,0 km/h (2 Bft) W 270 0 min 0,000 mm 113 W/m 2,9 C 7,5 C 19,3 km/h (3 Bft) 98 %
06.03.2017 16:50 8,6 C 8,6 C 8,7 C 67 % 999,4 hPa 0,0 l/m 3,2 km/h (1 Bft) W-NW 292 0 min 0,000 mm 104 W/m 2,8 C 8,6 C 16,1 km/h (3 Bft) 98 %
06.03.2017 17:00 8,5 C 8,5 C 8,6 C 68 % 999,4 hPa 0,0 l/m 4,8 km/h (1 Bft) NW 315 0 min 0,076 mm 79 W/m 2,9 C 8,5 C 14,5 km/h (3 Bft) 98 %
06.03.2017 17:10 8,3 C 8,3 C 8,5 C 69 % 999,6 hPa 0,0 l/m 6,4 km/h (2 Bft) NW 315 0 min 0,000 mm 76 W/m 3,0 C 8,3 C 9,7 km/h (2 Bft) 97 %
06.03.2017 17:20 8,0 C 8,0 C 8,3 C 74 % 999,8 hPa 0,0 l/m 6,4 km/h (2 Bft) NW 315 0 min 0,000 mm 42 W/m 3,7 C 8,0 C 17,7 km/h (3 Bft) 98 %
06.03.2017 17:30 7,5 C 7,5 C 8,0 C 76 % 999,7 hPa 0,0 l/m 0,0 km/h (0 Bft) N-NW 337 0 min 0,000 mm 28 W/m 3,5 C 7,5 C 6,4 km/h (2 Bft) 98 %
06.03.2017 17:40 7,2 C 7,2 C 7,5 C 78 % 999,8 hPa 0,0 l/m 0,0 km/h (0 Bft) N 0 0 min 0,000 mm 19 W/m 3,6 C 7,2 C 0,0 km/h (0 Bft) 97 %
06.03.2017 17:50 7,0 C 7,0 C 7,2 C 79 % 1000,0 hPa 0,0 l/m 0,0 km/h (0 Bft) N 360 0 min 0,000 mm 21 W/m 3,6 C 7,0 C 1,6 km/h (1 Bft) 98 %
06.03.2017 18:00 6,8 C 6,8 C 7,0 C 79 % 1000,1 hPa 0,0 l/m 0,0 km/h (0 Bft) N 360 0 min 0,025 mm 12 W/m 3,4 C 6,8 C 3,2 km/h (1 Bft) 98 %
06.03.2017 18:10 6,6 C 6,6 C 6,8 C 80 % 1000,5 hPa 0,0 l/m 0,0 km/h (0 Bft) N 0 0 min 0,000 mm 5 W/m 3,4 C 6,6 C 0,0 km/h (0 Bft) 98 %
06.03.2017 18:20 6,4 C 6,4 C 6,6 C 81 % 1000,7 hPa 0,0 l/m 1,6 km/h (1 Bft) N 360 0 min 0,000 mm 0 W/m 3,4 C 6,4 C 6,4 km/h (2 Bft) 98 %
06.03.2017 18:30 6,3 C 6,3 C 6,4 C 81 % 1001,1 hPa 0,0 l/m 1,6 km/h (1 Bft) N-NW 337 0 min 0,000 mm 0 W/m 3,3 C 6,3 C 6,4 km/h (2 Bft) 98 %
06.03.2017 18:40 6,2 C 6,2 C 6,3 C 82 % 1001,3 hPa 0,0 l/m 3,2 km/h (1 Bft) N-NW 337 0 min 0,000 mm 0 W/m 3,4 C 6,2 C 14,5 km/h (3 Bft) 98 %
06.03.2017 18:50 6,1 C 6,1 C 6,2 C 83 % 1001,5 hPa 0,0 l/m 4,8 km/h (1 Bft) NW 315 0 min 0,000 mm 0 W/m 3,4 C 6,1 C 16,1 km/h (3 Bft) 97 %
06.03.2017 19:00 5,8 C 5,8 C 6,1 C 84 % 1001,6 hPa 0,0 l/m 0,0 km/h (0 Bft) N-NW 337 0 min 0,000 mm 0 W/m 3,3 C 5,8 C 4,8 km/h (1 Bft) 97 %
06.03.2017 19:10 5,6 C 5,6 C 5,8 C 85 % 1001,7 hPa 0,0 l/m 0,0 km/h (0 Bft) N-NW 337 0 min 0,000 mm 0 W/m 3,3 C 5,6 C 3,2 km/h (1 Bft) 97 %
06.03.2017 19:20 5,4 C 5,4 C 5,6 C 85 % 1002,0 hPa 0,0 l/m 0,0 km/h (0 Bft) N-NW 337 0 min 0,000 mm 0 W/m 3,1 C 5,4 C 1,6 km/h (1 Bft) 97 %
06.03.2017 19:40 5,1 C 5,1 C 5,6 C 86 % 1002,5 hPa 0,0 l/m 6,8 km/h (2 Bft) W-NW 284 0 min 0,000 mm 0 W/m 3,0 C 4,8 C 24,1 km/h (4 Bft) 98 %
06.03.2017 19:50 5,1 C 5,1 C 5,2 C 87 % 1002,5 hPa 0,2 l/m 9,9 km/h (2 Bft) W-NW 300 0 min 0,000 mm 0 W/m 3,1 C 2,3 C 29,0 km/h (5 Bft) 98 %
06.03.2017 20:00 5,0 C 4,9 C 5,1 C 88 % 1002,6 hPa 0,2 l/m 5,9 km/h (2 Bft) W 276 0 min 0,000 mm 0 W/m 3,2 C 5,0 C 16,1 km/h (3 Bft) 97 %
06.03.2017 20:10 4,8 C 4,8 C 5,0 C 88 % 1002,6 hPa 0,0 l/m 3,8 km/h (1 Bft) W 269 0 min 0,000 mm 0 W/m 3,0 C 4,8 C 11,3 km/h (2 Bft) 89 %
06.03.2017 20:20 4,8 C 4,8 C 4,9 C 88 % 1002,8 hPa 0,0 l/m 3,1 km/h (1 Bft) W 267 0 min 0,000 mm 0 W/m 3,0 C 4,8 C 9,7 km/h (2 Bft) 98 %
06.03.2017 20:30 4,7 C 4,7 C 4,8 C 89 % 1002,9 hPa 0,0 l/m 2,0 km/h (1 Bft) W 265 0 min 0,000 mm 0 W/m 3,0 C 4,7 C 9,7 km/h (2 Bft) 98 %
06.03.2017 20:40 4,6 C 4,6 C 4,7 C 89 % 1003,1 hPa 0,0 l/m 1,3 km/h (1 Bft) W-NW 295 0 min 0,000 mm 0 W/m 2,9 C 4,6 C 8,0 km/h (2 Bft) 97 %
06.03.2017 20:50 4,6 C 4,6 C 4,6 C 90 % 1003,1 hPa 0,0 l/m 1,9 km/h (1 Bft) W 276 0 min 0,000 mm 0 W/m 3,1 C 4,6 C 8,0 km/h (2 Bft) 97 %
06.03.2017 21:00 4,6 C 4,6 C 4,6 C 90 % 1003,3 hPa 0,0 l/m 0,7 km/h (0 Bft) W 281 0 min 0,000 mm 0 W/m 3,1 C 4,6 C 6,4 km/h (2 Bft) 97 %
06.03.2017 21:10 4,5 C 4,5 C 4,6 C 90 % 1003,4 hPa 0,0 l/m 0,0 km/h (0 Bft) N 0 0 min 0,000 mm 0 W/m 3,0 C 4,5 C 0,0 km/h (0 Bft) 99 %
06.03.2017 21:20 4,4 C 4,4 C 4,5 C 90 % 1003,6 hPa 0,0 l/m 0,0 km/h (0 Bft) N 0 0 min 0,000 mm 0 W/m 2,9 C 4,4 C 0,0 km/h (0 Bft) 100 %
06.03.2017 21:30 4,3 C 4,3 C 4,4 C 90 % 1003,9 hPa 0,0 l/m 0,0 km/h (0 Bft) N 0 0 min 0,000 mm 0 W/m 2,8 C 4,3 C 0,0 km/h (0 Bft) 100 %
06.03.2017 21:40 4,2 C 4,2 C 4,3 C 91 % 1004,0 hPa 0,0 l/m 0,0 km/h (0 Bft) N 0 0 min 0,000 mm 0 W/m 2,9 C 4,2 C 0,0 km/h (0 Bft) 100 %
06.03.2017 21:50 4,2 C 4,2 C 4,2 C 91 % 1004,1 hPa 0,0 l/m 0,0 km/h (0 Bft) W 270 0 min 0,000 mm 0 W/m 2,9 C 4,2 C 3,2 km/h (1 Bft) 100 %
06.03.2017 22:00 4,2 C 4,2 C 4,2 C 91 % 1004,4 hPa 0,0 l/m 0,0 km/h (0 Bft) W 270 0 min 0,000 mm 0 W/m 2,9 C 4,2 C 3,2 km/h (1 Bft) 100 %
06.03.2017 22:10 4,3 C 4,2 C 4,3 C 91 % 1004,5 hPa 0,0 l/m 0,0 km/h (0 Bft) W 270 0 min 0,000 mm 0 W/m 3,0 C 4,3 C 4,8 km/h (1 Bft) 100 %
06.03.2017 22:20 4,4 C 4,3 C 4,4 C 91 % 1004,6 hPa 0,0 l/m 3,2 km/h (1 Bft) NW 315 0 min 0,000 mm 0 W/m 3,1 C 4,4 C 11,3 km/h (2 Bft) 99 %
06.03.2017 22:30 4,5 C 4,4 C 4,5 C 91 % 1004,7 hPa 0,2 l/m 4,8 km/h (1 Bft) NW 315 0 min 0,000 mm 0 W/m 3,2 C 4,5 C 9,7 km/h (2 Bft) 99 %
06.03.2017 22:40 4,4 C 4,4 C 4,5 C 91 % 1004,9 hPa 0,4 l/m 4,8 km/h (1 Bft) N-NW 337 0 min 0,000 mm 0 W/m 3,1 C 4,4 C 11,3 km/h (2 Bft) 100 %
06.03.2017 22:50 4,3 C 4,3 C 4,4 C 91 % 1004,9 hPa 0,0 l/m 4,8 km/h (1 Bft) NW 315 0 min 0,000 mm 0 W/m 3,0 C 4,3 C 11,3 km/h (2 Bft) 100 %
06.03.2017 23:00 4,2 C 4,2 C 4,3 C 91 % 1005,0 hPa 0,0 l/m 1,6 km/h (1 Bft) NW 315 0 min 0,000 mm 0 W/m 2,9 C 4,2 C 6,4 km/h (2 Bft) 100 %
06.03.2017 23:10 4,2 C 4,2 C 4,2 C 91 % 1005,2 hPa 0,0 l/m 1,6 km/h (1 Bft) NW 315 0 min 0,000 mm 0 W/m 2,9 C 4,2 C 8,0 km/h (2 Bft) 100 %
06.03.2017 23:20 4,2 C 4,2 C 4,2 C 91 % 1005,6 hPa 0,0 l/m 0,0 km/h (0 Bft) N 0 0 min 0,000 mm 0 W/m 2,9 C 4,2 C 0,0 km/h (0 Bft) 100 %
06.03.2017 23:30 4,2 C 4,1 C 4,2 C 91 % 1005,7 hPa 0,6 l/m 1,6 km/h (1 Bft) NW 315 0 min 0,000 mm 0 W/m 2,9 C 4,2 C 16,1 km/h (3 Bft) 100 %
06.03.2017 23:40 4,1 C 4,1 C 4,2 C 91 % 1005,6 hPa 0,0 l/m 3,2 km/h (1 Bft) W-NW 292 0 min 0,000 mm 0 W/m 2,8 C 4,1 C 9,7 km/h (2 Bft) 100 %
06.03.2017 23:50 4,1 C 4,1 C 4,1 C 91 % 1005,7 hPa 0,0 l/m 0,0 km/h (0 Bft) W 270 0 min 0,000 mm 0 W/m 2,8 C 4,1 C 1,6 km/h (1 Bft) 100 %
_ Min-Zeit 00:40 00:40 00:50 16:10 15:40 - 17:30 - - - - - 00:40 08:40 17:40 04:00
Minimum _ 3,9 C 3,9 C 3,9 C 65 % 998,9 hPa - 0,0 km/h (0 Bft) - - - - - 2,6 C -4,0 C 0,0 km/h (0 Bft) 87 %
_ Max-Zeit 16:10 16:10 16:10 00:00 23:30 23:30 08:40 - - 12:10 15:00 12:30 12:40 16:50 11:40 00:00
Maximum _ 9,1 C 8,9 C 9,1 C 91 % 1005,7 hPa 0,6 l/m 20,9 km/h
S-SW (4 Bft)
- - 10 min 0,127 mm 339 W/m 3,8 C 8,6 C 46,7 km/h
W-SW (6 Bft)
100 %
Durchschnitt _ 5,4 C 5,3 C 5,4 C 85 % 1002,1 hPa #3,2 l/m 9,9 km/h (2 Bft) SW - #2:40 h #0,708 mm 112 W/m 3,0 C 2,0 C 22,7 km/h (4 Bft) 99 %
PRIVATE WETTERSTATION BILLIGHEIM-ALLFELD - www.neckar-odenwald-wetter.de - Holger Sonntag